Tracking 30995 objects as of 7-Jul-2025
HD Live streaming from Space Station
objects crossing your sky now

NOAA 16 DEB

Track NOAA 16 DEB now!
10-day predictions


NORAD ID: 41204
Int'l Code: 2000-055DH
Perigee: 818.2 km
Apogee: 852.1 km
Inclination: 98.7 °
Period: 101.5 minutes
Semi major axis: 7206 km
RCS: Unknown
Launch date: September 21, 2000
Source: United States (US)
Launch site: AIR FORCE WESTERN TEST RANGE (AFWTR)

Note: This is SATELLITE DEBRIS
Your satellite tracking list
Your tracking list is empty




NASA's NSSDC Master Catalog

Two Line Element Set (TLE):
1 41204U 00055DH  25184.13597109  .00002080  00000-0  10105-2 0  9995
2 41204  98.7289 247.8363 0023537 147.0900 213.1747 14.19207800492776
Source of the keplerian elements: AFSPC